COSMOS 2491 DEB, 45130

Orbit data source: Space-Track

COSMOS 2491 DEB, 45130 is space debris in LEO originally from a launch on Wed, 25 Dec 2013 UTC launched from the Plesetsk Missile And Space Complex (PKMTR). Debris objects in space refer to the collection of defunct objects orbiting the Earth. Examples of debris include non-operational satellites, rocket bodies, and fragments generated from explosions, collisions, or faulty payload assembly.

Loading next visibility...
Identifier
45130, 2013-076AC
Orbit
LEO
Country
Flag of CISCIS
Related business
Manufacturer
TsNIIKhM
Mission
Spacecraft
Bus & Motor
Unknown
Mass
Unknown
Launch date (UTC)
2013-12-25 (12 years ago)
Launch vehicle
Unknown
Launch site
Plesetsk Missile And Space Complex (PKMTR)
Object type
Payload
Rocket body
Debris
Shape & HBR
Unknown shape, 0.1 m
Radar Cross Section
Small (<0.1 m²)

Expand to show TLE details & history
Last TLE update: 2 days ago

TLE from 2 days ago
0 COSMOS 2491 DEB
1 45130U 13076AC  25349.94582364  .00001686  00000-0  81182-2 0  9997
2 45130  82.4525 223.2254 0118717 204.4091 155.1356 12.70857562271409
Epoch: 2025-12-15T22:41Z
TLE epoch observation values (Epoch: 2025-12-15T22:41:59.162Z)
Latitude
0.00001°
Longitude
157.89179°
Altitude
1,464.94 km
Speed
7.092 km/s
True Right ascension
14h 52m 54s
True Declination
0° 00' 00"
Sunlit
Object was in daylight at epoch
Visualization orbit readout
Latitude
Unknown
Longitude
Unknown
Altitude
Unknown
Speed
Unknown
Apparent Right ascension
Unknown
Apparent Declination
Unknown
Sunlit
N/A
Visualization observer readout
Local Sidereal Time
01:19:12
Azimuth
Unknown
Elevation
Unknown
Doppler factor
Unknown
Orbital elements
Apogee altitude
1,467.813 km
Perigee altitude
1,283.709 km
Semi-major axis
7,753.898 km
Eccentricity
0.01187
Inclination
82.4525°
RAAN
223.2254°
Arg. of periapsis
204.4091°
True anomaly
155.7°
Mean anomaly
155.1356°
Eccentric anomaly
155.41855°
Mean motion
3.1788 °/min
Orbital period
113.25 mins
BSTAR
0.0081182
Loading maneuver chart data...
Computing Atmospheric mass density...
Loading historical data...
Loading historical data...
Loading historical data...
Loading historical data...
Loading historical data...
Loading historical data...
Loading historical data...

Documentation

Showing up to 5 results
|